Time,TemperatureF,DewpointF,PressureIn,WindDirection,WindDirectionDegrees,WindSpeedMPH,WindSpeedGustMPH,Humidity,HourlyPrecipIn,Conditions,Clouds,dailyrainin,SoftwareType,DateUTC
2013-01-19 00:04:00,19.0,-2.0,-100.00,South,185,6.0,7.0,38,-99.99,,,-99.99,,2013-01-19 05:04:00,
2013-01-19 00:13:00,19.0,-2.0,-100.00,SSW,210,3.0,6.0,38,-99.99,,,-99.99,,2013-01-19 05:13:00,
2013-01-19 00:23:00,19.0,-2.0,-100.00,SSW,205,5.0,7.0,38,-99.99,,,-99.99,,2013-01-19 05:23:00,
2013-01-19 00:33:00,19.0,-2.0,-100.00,South,190,5.0,8.0,39,-99.99,,,-99.99,,2013-01-19 05:33:00,
2013-01-19 00:43:00,20.0,-2.0,-100.00,SSW,200,5.0,7.0,38,-99.99,,,-99.99,,2013-01-19 05:43:00,
2013-01-19 00:53:00,20.0,-2.0,-100.00,SW,220,5.0,13.0,38,-99.99,,,-99.99,,2013-01-19 05:53:00,
2013-01-19 01:33:00,21.0,-2.0,-100.00,SSW,195,6.0,10.0,35,-99.99,,,-99.99,,2013-01-19 06:33:00,
2013-01-19 01:43:00,21.0,-3.0,-100.00,SW,220,7.0,14.0,34,-99.99,,,-99.99,,2013-01-19 06:43:00,
2013-01-19 01:52:00,22.0,-2.0,-100.00,SW,230,3.0,8.0,34,-99.99,,,-99.99,,2013-01-19 06:52:00,
2013-01-19 02:02:00,22.0,-1.0,-100.00,SW,220,5.0,8.0,35,-99.99,,,-99.99,,2013-01-19 07:02:00,
2013-01-19 02:12:00,22.0,-2.0,-100.00,SW,225,5.0,10.0,34,-99.99,,,-99.99,,2013-01-19 07:12:00,
2013-01-19 02:33:00,23.0,-1.0,-100.00,SW,230,6.0,13.0,34,-99.99,,,-99.99,,2013-01-19 07:33:00,
2013-01-19 03:02:00,23.0,0.0,-100.00,SSW,210,6.0,10.0,35,-99.99,,,-99.99,,2013-01-19 08:02:00,
2013-01-19 03:12:00,24.0,1.0,-100.00,SW,230,5.0,10.0,36,-99.99,,,-99.99,,2013-01-19 08:12:00,
2013-01-19 04:30:00,27.0,6.0,-100.00,SW,225,5.0,12.0,41,-99.99,,,-99.99,,2013-01-19 09:30:00,
2013-01-19 04:33:00,26.0,3.0,-100.00,SW,235,5.0,12.0,38,-99.99,,,-99.99,,2013-01-19 09:33:00,
2013-01-19 04:43:00,26.0,5.0,-100.00,SW,220,5.0,9.0,40,-99.99,,,-99.99,,2013-01-19 09:43:00,
2013-01-19 04:52:00,26.0,5.0,-100.00,SW,215,5.0,13.0,40,-99.99,,,-99.99,,2013-01-19 09:52:00,
2013-01-19 05:02:00,26.0,6.0,-100.00,SW,230,6.0,9.0,41,-99.99,,,-99.99,,2013-01-19 10:02:00,
2013-01-19 05:12:00,27.0,6.0,-100.00,SW,225,5.0,12.0,41,-99.99,,,-99.99,,2013-01-19 10:12:00,
2013-01-19 05:23:00,27.0,6.0,-100.00,SW,225,5.0,12.0,41,-99.99,,,-99.99,,2013-01-19 10:23:00,
2013-01-19 05:43:00,28.0,6.0,-100.00,WSW,245,8.0,20.0,39,-99.99,,,-99.99,,2013-01-19 10:43:00,
2013-01-19 05:53:00,28.0,8.0,-100.00,SW,225,9.0,16.0,41,-99.99,,,-99.99,,2013-01-19 10:53:00,
2013-01-19 06:03:00,28.0,8.0,-100.00,SW,235,10.0,22.0,41,-99.99,,,-99.99,,2013-01-19 11:03:00,
2013-01-19 06:20:00,29.0,10.0,-100.00,SW,225,8.0,17.0,43,-99.99,,,-99.99,,2013-01-19 11:20:00,
2013-01-19 07:40:00,31.0,12.0,-100.00,SW,235,6.0,24.0,44,-99.99,,,-99.99,,2013-01-19 12:40:00,
2013-01-19 07:48:00,30.0,11.0,-100.00,WSW,245,6.0,17.0,44,-99.99,,,-99.99,,2013-01-19 12:48:00,
2013-01-19 07:53:00,31.0,11.0,-100.00,SW,235,9.0,15.0,43,-99.99,,,-99.99,,2013-01-19 12:53:00,
2013-01-19 08:03:00,31.0,11.0,-100.00,SW,225,7.0,17.0,44,-99.99,,,-99.99,,2013-01-19 13:03:00,
2013-01-19 08:13:00,31.0,12.0,-100.00,SW,225,8.0,16.0,44,-99.99,,,-99.99,,2013-01-19 13:13:00,
2013-01-19 08:23:00,31.0,12.0,-100.00,SW,235,6.0,24.0,44,-99.99,,,-99.99,,2013-01-19 13:23:00,
2013-01-19 08:34:00,31.0,12.0,-100.00,SW,235,6.0,24.0,44,-99.99,,,-99.99,,2013-01-19 13:34:00,
2013-01-19 08:54:00,32.0,12.0,-100.00,WSW,255,9.0,21.0,43,-99.99,,,-99.99,,2013-01-19 13:54:00,
2013-01-19 10:23:00,36.0,15.0,-100.00,WSW,245,12.0,21.0,41,-99.99,,,-99.99,,2013-01-19 15:23:00,
2013-01-19 10:33:00,37.0,15.0,-100.00,SW,220,8.0,23.0,40,-99.99,,,-99.99,,2013-01-19 15:33:00,
2013-01-19 10:43:00,38.0,15.0,-100.00,SW,230,15.0,27.0,39,-99.99,,,-99.99,,2013-01-19 15:43:00,
2013-01-19 10:53:00,38.0,15.0,-100.00,WSW,245,9.0,20.0,39,-99.99,,,-99.99,,2013-01-19 15:53:00,
2013-01-19 11:03:00,38.0,15.0,-100.00,SW,225,14.0,22.0,39,-99.99,,,-99.99,,2013-01-19 16:03:00,
2013-01-19 11:13:00,38.0,15.0,-100.00,SW,230,8.0,20.0,39,-99.99,,,-99.99,,2013-01-19 16:13:00,
2013-01-19 11:23:00,38.0,15.0,-100.00,SW,230,8.0,20.0,39,-99.99,,,-99.99,,2013-01-19 16:23:00,
2013-01-19 11:33:00,39.0,15.0,-100.00,SW,230,5.0,14.0,38,-99.99,,,-99.99,,2013-01-19 16:33:00,
2013-01-19 11:43:00,39.0,15.0,-100.00,SW,230,9.0,21.0,37,-99.99,,,-99.99,,2013-01-19 16:43:00,
2013-01-19 12:03:00,41.0,14.0,-100.00,SW,235,7.0,22.0,32,-99.99,,,-99.99,,2013-01-19 17:03:00,
2013-01-19 12:22:00,41.0,13.0,-100.00,SW,230,10.0,22.0,32,-99.99,,,-99.99,,2013-01-19 17:22:00,
2013-01-19 14:31:00,46.0,9.0,-100.00,WSW,250,13.0,28.0,22,-99.99,,,-99.99,,2013-01-19 19:31:00,
2013-01-19 14:40:00,47.0,10.0,-100.00,SW,220,6.0,20.0,22,-99.99,,,-99.99,,2013-01-19 19:40:00,
2013-01-19 15:20:00,47.0,10.0,-100.00,WSW,245,12.0,25.0,21,-99.99,,,-99.99,,2013-01-19 20:20:00,
2013-01-19 15:27:00,48.0,9.0,-100.00,WSW,250,6.0,14.0,20,-99.99,,,-99.99,,2013-01-19 20:27:00,
2013-01-19 15:39:00,48.0,10.0,-100.00,WSW,245,8.0,21.0,21,-99.99,,,-99.99,,2013-01-19 20:39:00,
2013-01-19 16:52:00,46.0,10.0,-100.00,WSW,245,9.0,17.0,23,-99.99,,,-99.99,,2013-01-19 21:52:00,
2013-01-19 17:20:00,45.0,12.0,-100.00,WSW,245,7.0,23.0,25,-99.99,,,-99.99,,2013-01-19 22:20:00,
2013-01-19 17:28:00,45.0,12.0,-100.00,WSW,245,7.0,23.0,25,-99.99,,,-99.99,,2013-01-19 22:28:00,
2013-01-19 17:35:00,45.0,12.0,-100.00,SW,230,7.0,17.0,26,-99.99,,,-99.99,,2013-01-19 22:35:00,
2013-01-19 17:48:00,44.0,12.0,-100.00,WSW,250,6.0,12.0,27,-99.99,,,-99.99,,2013-01-19 22:48:00,
2013-01-19 17:55:00,44.0,13.0,-100.00,WSW,255,5.0,12.0,28,-99.99,,,-99.99,,2013-01-19 22:55:00,
2013-01-19 19:01:00,42.0,15.0,-100.00,SW,230,5.0,8.0,32,-99.99,,,-99.99,,2013-01-20 00:01:00,
2013-01-19 21:05:00,39.0,17.0,-100.00,SSW,210,5.0,7.0,40,-99.99,,,-99.99,,2013-01-20 02:05:00,
2013-01-19 21:45:00,39.0,20.0,-100.00,SW,215,3.0,7.0,46,-99.99,,,-99.99,,2013-01-20 02:45:00,
2013-01-19 21:56:00,39.0,20.0,-100.00,SW,215,3.0,7.0,47,-99.99,,,-99.99,,2013-01-20 02:56:00,
2013-01-19 22:09:00,39.0,21.0,-100.00,SW,215,3.0,6.0,48,-99.99,,,-99.99,,2013-01-20 03:09:00,
2013-01-19 22:30:00,39.0,26.0,-100.00,SW,215,5.0,8.0,58,-99.99,,,-99.99,,2013-01-20 03:30:00,
2013-01-19 23:15:00,39.0,26.0,-100.00,SW,215,5.0,8.0,58,-99.99,,,-99.99,,2013-01-20 04:15:00,
2013-01-19 23:28:00,39.0,26.0,-100.00,SW,215,5.0,8.0,58,-99.99,,,-99.99,,2013-01-20 04:28:00,